User: anonymous   Login
Location: Unspecified
(0.0000°N, 0.0000°E)
Time: 08:54:39
(UTC+00:00)
Language:

NOSS 2-1 (C) - Orbit

View from above orbital plane
View from above orbital plane
View from above satellite
View from above satellite

Ground track
Ground track

The orbit data is extracted from the following two-line orbital elements,

1 20691U 90050C   20023.72246810 0.00000290  00000-0  48146-4 0    00
2 20691  63.3144 247.4354 0861789  44.2942 315.7058 13.41994563    08
Epoch (UTC): 23 January 2020 17:20:21
Eccentricity: 0.0861789
inclination: 63.3144°
perigee height: 457 km
apogee height: 1746 km
right ascension of ascending node: 247.4354°
argument of perigee: 44.2942°
revolutions per day: 13.41994563
mean anomaly at epoch: 315.7058°
orbit number at epoch: 0

The dashed part of the orbit path shows where the satellite is in the earth's shadow,  

DLR